Regional Weather Roundup
Issued by NWS

Home | Current Version | Previous Version | Text Only | Print | Product List | Glossary On
Versions: 1 2 3 4 5 6 7 8 9 10 11 12 13 14 15 16 17 18 19 20 21 22 23 24 25 26 27 28 29 30 31 32 33 34 35 36 37 38 39 40 41 42 43 44 45 46 47 48 49 50
870
ASUS43 KDTX 240910
RWRMI
MICHIGAN HOURLY REGIONAL WEATHER ROUNDUP
NATIONAL WEATHER SERVICE DETROIT/PONTIAC MI
500 AM EDT WED AUG 24 2016

NOTE: "FAIR" INDICATES FEW OR NO CLOUDS BELOW 12,000 FEET WITH NO
SIGNIFICANT WEATHER AND/OR OBSTRUCTION TO VISIBILITY.

MIZ047>049-052>055-059>063-066>070-074>076-081>083-241000-
SOUTHEAST LOWER MICHIGAN

CITY           SKY/WX    TMP DP  RH WIND       PRES   REMARKS
ADRIAN         CLEAR     60  59  96 SW3       30.18R
ALMA           CLEAR     62  60  95 S6        30.12F
ANN ARBOR      CLEAR     52  52 100 CALM      30.17R
BAD AXE        CLEAR     62  59  87 S7        30.15S
CARO           CLEAR     57  57  97 CALM      30.14S
DETROIT CITY   PTCLDY    67  64  90 S5        30.17S
DETROIT        PTCLDY    65  60  84 S5        30.17S
FLINT          CLEAR     66  59  78 S6        30.16R
GROSSE ILE     CLEAR     70  63  77 SW7       30.16S
HILLSDALE      CLEAR     62  58  87 S3        30.17S
HOWELL         CLEAR     64  59  86 CALM      30.17R

CITY           SKY/WX    TMP DP  RH WIND       PRES   REMARKS
JACKSON        CLEAR     62  60  93 S6        30.16R
LAMBERTVILLE   PTCLDY    62  59  90 S3        30.17S
LANSING        CLEAR     64  57  78 S8        30.14S
LAPEER         FAIR      61  59  94 S8        30.17R
MASON          CLEAR     60  57  91 S3        30.16R
MONROE         CLEAR     63  60  88 SE5       30.16S
MT. CLEMENS    CLEAR     66  62  87 S7        30.14S
PONTIAC        PTCLDY    65  59  81 S5        30.17R
PORT HURON     PTCLDY    59  59 100 CALM      30.17R FOG
TRI CITIES     CLEAR     64  60  87 S7        30.13S
MIDLAND        FAIR      63  58  85 CALM      30.12S
TROY           MOCLDY    67  61  79 SW5       30.19R
SAGINAW HB     CLEAR     61  59  94 S7        30.13S
$$
MIZ043>046-050>051-056>058-064>065-071>073-077>080-241000-
SOUTHWEST LOWER MICHIGAN

CITY           SKY/WX    TMP DP  RH WIND       PRES   REMARKS
BATTLE CREEK   PTCLDY    62  60  93 S8        30.14S
BENTON HARBOR  CLOUDY    70  61  73 S8        30.08F
BIG RAPIDS     MOCLDY    61  60  96 CALM      30.09F
COLDWATER      PTCLDY    62  61  96 SE3       30.15F
FREMONT        FAIR      65  60  86 S5        30.07F
HOLLAND        LGT RAIN  68  62  81 S12       30.08F
GRAND RAPIDS   PTCLDY    64  59  83 S8        30.10F
IONIA          FAIR      63  58  86 S6        30.11F
KALAMAZOO      CLOUDY    67  59  75 S6        30.12F
LUDINGTON      CLOUDY    68  64  87 SE7       30.02F
MARSHALL       CLEAR     64  61  88 S5        30.14S
MOUNT PLEASANT CLEAR     62  59  90 S3        30.11S
MUSKEGON       CLOUDY    68  62  81 S8        30.06F
SOUTH HAVEN    CLOUDY    70  64  80 S7        30.08F
$$
MIZ016>042-241000-
NORTHERN LOWER MICHIGAN

CITY           SKY/WX    TMP DP  RH WIND       PRES   REMARKS
ALPENA         CLOUDY    58  56  93 S6        30.09F
BEAVER ISLAND  PTCLDY    69  63  80 S7        30.02S
BELLAIRE       CLOUDY    67  60  77 S6        30.05S
CADILLAC       CLOUDY    64  58  83 S9        30.08S
CHARLEVOIX     PTCLDY    67  60  78 S7        30.06S
FRANKFORT      CLOUDY    69  61  76 SE9       30.01F
GAYLORD        MOCLDY    64  57  78 SW9       30.08F
GRAYLING       CLOUDY    64  59  85 S5        30.10S
HARBOR SPRINGS MOCLDY    65  60  84 S3        30.05R
HOUGHTON LAKE  PTCLDY    64  59  83 S8        30.11S
MANISTEE       CLOUDY    64  61  90 SE5       30.01F
OSCODA         CLOUDY    60  60  99 CALM      30.11S
PELLSTON       CLOUDY    61  57  87 S5        30.06R
ROGERS CITY    CLOUDY    63  58  83 S6        30.09R
TRAVERSE CITY  CLOUDY    67  60  78 VRB3      30.02S
$$
MIZ007>008-015-241000-
EASTERN UPPER MICHIGAN

CITY           SKY/WX    TMP DP  RH WIND       PRES   REMARKS
KINROSS        CLOUDY    61  58  90 SE7       30.06R
MACKINAC ISLAN MOCLDY    65  60  83 S8        30.05R
NEWBERRY       CLEAR     65  64  97 S8        30.01S
S. S. MARIE    CLOUDY    64  60  87 E3        30.04R
$$
MIZ004>006-011>014-085-241000-
CENTRAL UPPER MICHIGAN

CITY           SKY/WX    TMP DP  RH WIND       PRES   REMARKS
MANISTIQUE     PTCLDY    66  64  92 SW3       30.00R FOG
ESCANABA       CLOUDY    69  65  86 S7        29.96S
MENOMINEE      RAIN     N/A N/A N/A SW8       29.95F
SAWYER-GWINN   CLOUDY    63  61  93 S7        29.97S
$$
MIZ001>003-009>011-084-241000-
WESTERN UPPER MICHIGAN

CITY           SKY/WX    TMP DP  RH WIND       PRES   REMARKS
IRON MOUNTAIN  LGT RAIN  66  61  84 S12G18    29.92F
HOUGHTON       CLOUDY    65  61  87 SE5       29.89F
COPPER HARBOR    N/A     68  64  87 SW7       29.88F
IRONWOOD       CLOUDY    69  63  81 S6        29.87S
$$

ABBREVIATIONS USED IN REMARKS
   TC - TEMPERATURE IN CELSIUS
  WCI - WIND CHILL INDEX
   HX - HEAT INDEX
  VSB - VISIBILITY





USA.gov is the U.S. government's official web portal to all federal, state and local government web resources and services.